EA1AY-13 Weather Reports


Display with metric or nautical units.
time (UTC)temp
F
wind
direction
speed
MPH
gust
MPH
rain 1hr
in
rain 24hr
in
rain mn
in
humidity
%
barometer
mb
20260904012516 64 0.0 0.0 0.00 0.00 0.00 61 1021.4
20260904011538 64 0.0 0.0 0.00 0.00 0.00 61 1021.5
20260904010516 64 0.0 0.0 0.00 0.00 0.00 57 1021.5
20260904005516 64 0.0 1.0 0.00 0.00 0.00 57 1021.5
20260904004516 64 0.0 1.0 0.00 0.00 0.00 57 1021.5
20260904003516 64 0.0 0.0 0.00 0.00 0.00 62 1021.5
20260904002516 64 0.0 0.0 0.00 0.00 0.00 62 1021.4
20260904001517 64 0.0 0.0 0.00 0.00 0.00 61 1021.3
20260904000516 64 0.0 0.0 0.00 0.00 0.00 60 1021.2
20260903235516 64 0.0 0.0 0.00 0.00 0.00 63 1021.2
20260903234516 65 0.0 1.0 0.00 0.00 0.00 66 1021.2
20260903233516 65 0.0 1.0 0.00 0.00 0.00 64 1021.2
20260903232516 65 0.0 1.0 0.00 0.00 0.00 58 1021.2
20260903231517 65 293 1.0 2.0 0.00 0.00 0.00 66 1021.3
20260903230517 65 0.0 1.0 0.00 0.00 0.00 67 1021.3
20260903225517 66 0.0 0.0 0.00 0.00 0.00 66 1021.4
20260903224517 66 0.0 0.0 0.00 0.00 0.00 66 1021.4
20260903223517 66 0.0 0.0 0.00 0.00 0.00 65 1021.4
20260903222516 66 0.0 0.0 0.00 0.00 0.00 67 1021.4
20260903221517 66 0.0 1.0 0.00 0.00 0.00 67 1021.4
20260903220516 66 0.0 0.0 0.00 0.00 0.00 67 1021.4
20260903215517 67 0.0 0.0 0.00 0.00 0.00 67 1021.3
20260903214518 67 0.0 1.0 0.00 0.00 0.00 70 1021.3
20260903213517 67 0.0 1.0 0.00 0.00 0.00 71 1021.3
20260903212517 68 0.0 0.0 0.00 0.00 0.00 72 1021.3
20260903211517 68 0.0 0.0 0.00 0.00 0.00 73 1021.2
20260903210517 69 0.0 0.0 0.00 0.00 0.00 72 1021.2
20260903205538 69 0.0 0.0 0.00 0.00 0.00 71 1021.1
20260903204517 69 0.0 0.0 0.00 0.00 0.00 75 1021.0
20260903203537 69 0.0 0.0 0.00 0.00 0.00 75 1020.9
20260903202518 69 0.0 0.0 0.00 0.00 0.00 76 1020.8
20260903201517 69 0.0 0.0 0.00 0.00 0.00 76 1020.8
20260903200517 70 0.0 1.0 0.00 0.00 0.00 73 1020.8
20260903195517 70 0.0 0.0 0.00 0.00 0.00 75 1020.8
20260903194518 70 0.0 0.0 0.00 0.00 0.00 74 1020.7
20260903193517 70 0.0 0.0 0.00 0.00 0.00 76 1020.6
20260903192517 71 0.0 0.0 0.00 0.00 0.00 76 1020.6
20260903191517 71 0.0 0.0 0.00 0.00 0.00 79
20260903190517 72 0.0 1.0 0.00 0.00 0.00 81
20260903185518 73 0.0 0.0 0.00 0.00 0.00 82
20260903184517 73 0.0 1.0 0.00 0.00 0.00 82
20260903183537 74 0.0 1.0 0.00 0.00 0.00 82
20260903182537 75 293 1.0 1.0 0.00 0.00 0.00 79
20260903181517 77 293 1.0 2.0 0.00 0.00 0.00 75
20260903180517 80 0.0 1.0 0.00 0.00 0.00 72
20260903175518 79 0.0 0.0 0.00 0.00 0.00 73
20260903174517 78 0.0 1.0 0.00 0.00 0.00 74
20260903173517 79 293 1.0 3.0 0.00 0.00 0.00 72
20260903172517 79 0.0 2.0 0.00 0.00 0.00 73
20260903171517 79 293 1.0 3.0 0.00 0.00 0.00 73
20260903170517 80 293 2.0 3.0 0.00 0.00 0.00 71
20260903165517 81 0.0 2.0 0.00 0.00 0.00 70
20260903164517 82 0.0 1.0 0.00 0.00 0.00 68
20260903163517 81 0.0 1.0 0.00 0.00 0.00 69
20260903162537 81 293 1.0 3.0 0.00 0.00 0.00 68
20260903161518 81 293 1.0 3.0 0.00 0.00 0.00 68 1021.1
20260903160517 81 293 1.0 3.0 0.00 0.00 0.00 68 1021.3
20260903155517 81 0.0 2.0 0.00 0.00 0.00 69 1021.4
20260903154517 81 293 1.0 3.0 0.00 0.00 0.00 69 1021.4
20260903153517 78 293 1.0 3.0 0.00 0.00 0.00 72 1021.6
20260903152517 78 293 2.0 4.0 0.00 0.00 0.00 72 1021.7
20260903151518 78 293 1.0 3.0 0.00 0.00 0.00 73 1021.9
20260903150517 77 293 2.0 5.0 0.00 0.00 0.00 73 1022.0
20260903145537 78 293 3.0 6.0 0.00 0.00 0.00 71 1022.0
20260903144517 79 293 2.0 4.0 0.00 0.00 0.00 69 1022.2
20260903143517 79 293 1.0 4.0 0.00 0.00 0.00 69 1022.3
20260903142558 82 0.0 1.0 0.00 0.00 0.00 65 1022.4
20260903141517 81 0.0 1.0 0.00 0.00 0.00 66 1022.5
20260903140518 80 293 1.0 3.0 0.00 0.00 0.00 67 1022.6
20260903135518 81 293 1.0 3.0 0.00 0.00 0.00 67 1022.6
20260903134517 81 293 1.0 3.0 0.00 0.00 0.00 66 1022.8
20260903133517 81 293 1.0 3.0 0.00 0.00 0.00 66 1022.7
20260903132557 80 293 1.0 3.0 0.00 0.00 0.00 67 1022.7
20260903131517 81 293 2.0 4.0 0.00 0.00 0.00 66 1022.7
20260903130517 81 293 2.0 4.0 0.00 0.00 0.00 67 1022.8
20260903125517 81 293 2.0 4.0 0.00 0.00 0.00 67 1022.8
20260903124517 80 293 1.0 4.0 0.00 0.00 0.00 67 1022.9
20260903123517 79 293 1.0 3.0 0.00 0.00 0.00 69 1022.9
20260903122537 81 293 1.0 3.0 0.00 0.00 0.00 67 1023.1
20260903121537 80 293 1.0 2.0 0.00 0.00 0.00 69 1023.1
20260903120517 79 293 1.0 4.0 0.00 0.00 0.00 69 1023.2
20260903115537 79 293 1.0 4.0 0.00 0.00 0.00 70 1023.3
20260903114517 79 0.0 2.0 0.00 0.00 0.00 71 1023.4
20260903113517 78 293 1.0 4.0 0.00 0.00 0.00 71 1023.6
20260903112517 77 293 2.0 4.0 0.00 0.00 0.00 72 1023.7
20260903111517 77 293 2.0 4.0 0.00 0.00 0.00 74 1023.7
20260903110517 77 293 2.0 5.0 0.00 0.00 0.00 73 1023.8
20260903105517 77 293 1.0 5.0 0.00 0.00 0.00 75 1023.8
20260903104517 77 293 2.0 3.0 0.00 0.00 0.00 74 1024.0
20260903103517 76 293 2.0 4.0 0.00 0.00 0.00 75 1024.0
20260903102517 76 293 1.0 2.0 0.00 0.00 0.00 76 1024.1
20260903101517 76 293 1.0 3.0 0.00 0.00 0.00 76 1024.0
20260903100517 75 293 2.0 3.0 0.00 0.00 0.00 77 1024.0
20260903095517 74 293 1.0 3.0 0.00 0.00 0.00 79 1024.0
20260903094517 74 293 1.0 3.0 0.00 0.00 0.00 81 1024.0
20260903093537 73 293 2.0 5.0 0.00 0.00 0.00 79 1024.1
20260903092517 74 0.0 2.0 0.00 0.00 0.00 80 1024.1
20260903091517 72 0.0 0.0 0.00 0.00 0.00 82 1024.1
20260903090517 71 293 1.0 4.0 0.00 0.00 0.00 82 1024.2
20260903085517 70 0.0 1.0 0.00 0.00 0.00 82 1024.1
20260903084518 70 293 1.0 3.0 0.00 0.00 0.00 82 1024.2
20260903083537 70 0.0 2.0 0.00 0.00 0.00 82 1024.2
20260903082517 69 0.0 1.0 0.00 0.00 0.00 82 1024.2
20260903081537 69 293 1.0 8.0 0.00 0.00 0.00 82 1024.2
20260903080517 70 293 1.0 4.0 0.00 0.00 0.00 83 1024.2
20260903075537 71 293 1.0 2.0 0.00 0.00 0.00 82 1024.1
20260903074517 71 293 1.0 3.0 0.00 0.00 0.00 82 1023.9
20260903073517 71 293 1.0 4.0 0.00 0.00 0.00 82 1023.7
20260903072516 71 293 1.0 4.0 0.00 0.00 0.00 82 1023.7
20260903071557 71 0.0 1.0 0.00 0.00 0.00 82 1023.7
20260903070517 70 0.0 1.0 0.00 0.00 0.00 81 1023.5
20260903065517 69 0.0 1.0 0.00 0.00 0.00 79 1023.4
20260903064518 0 0.0 0.0 0.00 0.00 0.00
20260903063517 0 0.0 0.0 0.00 0.00 0.00
20260903063004 0 0.0 0.0 0.00 0.00 0.00
20260903062037 0 0.0 0.0 0.00 0.00 0.00
20260903061017 0 0.0 0.0 0.00 0.00 0.00
20260903060503 0 0.0 0.0 0.00 0.00 0.00
20260903055517 0 0.0 0.0 0.00 0.00 0.00
20260903054517 0 0.0 0.0 0.00 0.00 0.00
20260903054003 0 0.0 0.0 0.00 0.00 0.00
20260903053017 0 0.0 0.0 0.00 0.00 0.00
20260903052018 0 0.0 0.0 0.00 0.00 0.00
20260903051502 0 0.0 0.0 0.00 0.00 0.00
20260903050516 0 0.0 0.0 0.00 0.00 0.00
20260903045516 0 0.0 0.0 0.00 0.00 0.00
20260903045002 0 0.0 0.0 0.00 0.00 0.00
20260903044017 0 0.0 0.0 0.00 0.00 0.00
20260903042958 0 0.0 0.0 0.00 0.00 0.00
20260903042546 0 0.0 0.0 0.00 0.00 0.00
20260903041517 0 0.0 0.0 0.00 0.00 0.00
20260903040537 67 0.0 0.0 0.00 0.00 0.00 80
20260903040011 67 0.0 0.0 0.00 0.00 0.00 80 1023.7
20260903035017 68 135 1.0 4.0 0.00 0.00 0.00 81 1023.8
20260903034017 68 0.0 2.0 0.00 0.00 0.00 81 1023.9
20260903033017 68 0.0 0.0 0.00 0.00 0.00 80 1024.0
20260903032037 68 0.0 1.0 0.00 0.00 0.00 80 1024.2
20260903031037 68 0.0 0.0 0.00 0.00 0.00 79 1024.2
20260903030017 68 0.0 2.0 0.00 0.00 0.00 78 1024.2
20260903025017 68 135 1.0 2.0 0.00 0.00 0.00 78 1024.2
20260903024037 68 0.0 0.0 0.00 0.00 0.00 79 1024.5
20260903023016 68 0.0 0.0 0.00 0.00 0.00 78 1024.5
20260903022017 68 0.0 1.0 0.00 0.00 0.00 78 1024.4
20260903021017 68 0.0 2.0 0.00 0.00 0.00 77 1024.5
20260903020017 68 0.0 1.0 0.00 0.00 0.00 77 1024.6
20260903015016 68 0.0 0.0 0.00 0.00 0.00 76 1024.6
20260903014037 68 0.0 1.0 0.00 0.00 0.00 76 1024.6